[[[{"header":{"parameterUnit":"kt","parameterCategory":2,"dx":1,"dy":1,"la1":30.253999710083008,"la2":30.299108505249023,"lo1":-89.0895004272461,"lo2":-89.04439544677734,"nx":28,"ny":28,"refTime":"2022-10-17T21:00:00:Z","depth":0,"parameterNumber":1,"parameterNumberName":"U-component_of_WINDS"},"data":[-1.8227,-1.8297,-1.8299,-1.8379,-1.8394,-1.8449,-1.847,-1.8497,-1.8518,-1.8584,-1.8622,-1.8632,-1.8655,-1.8701,-1.8742,-1.8746,-1.8764,-1.8786,-1.8787,-1.8685,-1.8671,-1.8658,-1.8642,-1.8789,-1.879,-1.8893,-1.8894,-1.8895,-1.815,-1.8166,-1.8209,-1.8252,-1.8289,-1.8269,-1.8301,-1.8334,-1.8384,-1.8411,-1.8449,-1.8508,-1.8554,-1.857,-1.8615,-1.8648,-1.8642,-1.866,-1.8659,-1.8663,-1.8553,-1.8537,-1.8664,-1.8664,-1.8664,-1.8664,-1.8664,-1.8664,-1.801,-1.8051,-1.8079,-1.8126,-1.8148,-1.8178,-1.8218,-1.8229,-1.8271,-1.8319,-1.8313,-1.837,-1.8399,-1.8455,-1.8475,-1.8519,-1.8499,-1.8521,-1.8527,-1.8533,-1.8539,-1.8391,-1.8527,-1.8526,-1.8526,-1.8526,-1.8525,0,-1.7909,-1.7908,-1.795,-1.7992,-1.8027,-1.806,-1.8091,-1.8116,-1.8116,-1.8151,-1.8202,-1.8232,-1.8291,-1.834,-1.8384,-1.84,-1.8385,-1.8383,-1.8398,-1.8403,-1.8401,-1.8404,-1.8227,-1.838,-1.8379,-1.8378,-1.8377,-1.8377,-1.7769,-1.7817,-1.7848,-1.7877,-1.7895,-1.7942,-1.7971,-1.7967,-1.7998,-1.8036,-1.8073,-1.8121,-1.816,-1.8242,-1.8256,-1.83,-1.8294,-1.8352,-1.8301,-1.8302,-1.8297,-1.8295,-1.83,-1.8363,-1.8365,-1.8366,-1.8368,0,-1.7691,-1.7695,-1.7771,-1.7797,-1.7805,-1.7855,-1.7878,-1.7919,-1.7926,-1.7984,-1.7997,-1.8009,-1.8059,-1.8064,-1.8123,-1.8123,-1.8207,-1.8199,-1.8197,-1.8196,-1.825,-1.8246,-1.8421,-1.8445,-1.829,-1.8291,-1.8292,0,-1.7575,-1.7638,-1.7641,-1.7685,-1.7755,-1.775,-1.782,-1.7833,-1.7858,-1.7904,-1.7886,-1.7929,-1.7928,-1.7972,-1.7974,-1.8043,-1.8053,-1.8059,-1.8059,-1.8062,-1.8062,-1.8081,-1.8075,-1.8055,-1.8055,-1.8054,-1.8053,0,-1.7453,-1.7529,-1.76,-1.7618,-1.7653,-1.7687,-1.7703,-1.7731,-1.776,-1.7797,-1.7816,-1.786,-1.7885,-1.7919,-1.7921,-1.7886,-1.8005,-1.7957,-1.8011,-1.8011,-1.804,-1.8038,-1.819,-1.8052,-1.8052,-1.8051,-1.8051,0,-1.7362,-1.7399,-1.7501,-1.753,-1.755,-1.7597,-1.764,-1.7681,-1.7712,-1.7716,-1.7746,-1.7736,-1.7796,-1.7748,-1.7831,-1.7785,-1.7811,-1.7821,-1.7825,-1.7833,-1.7781,-1.7869,-1.8011,-1.8027,-1.7837,-1.7835,-1.7833,0,-1.7222,-1.7326,-1.7323,-1.742,-1.7469,-1.7446,-1.7498,-1.7526,-1.7536,-1.7579,-1.7589,-1.7639,-1.7605,-1.7621,-1.7661,-1.7675,-1.7734,-1.7667,-1.7731,-1.7733,-1.7725,-1.7855,-1.7876,-1.7978,-1.7811,-1.7813,-1.7815,0,-1.7115,-1.7158,-1.7175,-1.7196,-1.7234,-1.7275,-1.7334,-1.7382,-1.7411,-1.7444,-1.7495,-1.7564,-1.7541,-1.7569,-1.7566,-1.7607,-1.7694,-1.7578,-1.7579,-1.76,-1.7799,-1.7819,-1.7836,-1.7683,-1.7685,-1.7688,-1.7797,0,-1.6978,-1.7031,-1.7078,-1.7125,-1.7158,-1.7218,-1.7224,-1.7257,-1.7251,-1.7261,-1.7334,-1.736,-1.741,-1.743,-1.7425,-1.7519,-1.7505,-1.748,-1.7437,-1.7522,-1.7558,-1.7573,-1.7382,-1.7381,-1.738,-1.7379,0,0,-1.6844,-1.692,-1.6917,-1.6974,-1.7002,-1.6979,-1.7044,-1.7068,-1.7117,-1.7137,-1.7112,-1.7214,-1.7237,-1.7327,-1.7353,-1.7373,-1.7391,-1.7362,-1.7481,-1.7492,-1.7503,-1.7541,-1.7557,-1.7377,-1.7377,-1.7377,-1.7376,0,-1.6796,-1.6818,-1.6882,-1.6907,-1.6943,-1.695,-1.6965,-1.6998,-1.7007,-1.7079,-1.7061,-1.7106,-1.7189,-1.7216,-1.724,-1.735,-1.7335,-1.7365,-1.7422,-1.747,-1.7483,-1.7494,-1.7535,-1.7549,-1.7374,-1.7374,-1.7374,0,-1.6693,-1.6717,-1.6748,-1.6809,-1.6833,-1.6884,-1.6839,-1.6896,-1.6934,-1.6908,-1.6981,-1.6996,-1.7033,-1.7116,-1.7154,-1.7133,-1.7284,-1.7238,-1.7244,-1.725,-1.7296,-1.7312,-1.7325,-1.7147,-1.7146,-1.7145,0,0,-1.6651,-1.67,-1.6726,-1.6799,-1.6815,-1.6828,-1.6856,-1.6853,-1.6886,-1.6899,-1.692,-1.6953,-1.7001,-1.7033,-1.7078,-1.7168,-1.7177,-1.7209,-1.722,-1.7229,-1.7239,-1.7288,-1.7303,-1.7142,-1.7142,-1.7142,0,0,-1.6632,-1.6664,-1.6652,-1.6738,-1.6769,-1.68,-1.6845,-1.6832,-1.6873,-1.6868,-1.6867,-1.6876,-1.6953,-1.697,-1.6928,-1.7063,-1.702,-1.703,-1.705,-1.7064,-1.7074,-1.707,-1.6888,0,0,0,0,0,-1.6586,-1.6659,-1.6648,-1.6664,-1.6742,-1.6806,-1.6816,-1.6817,-1.6786,-1.6821,-1.6836,-1.6818,-1.6947,-1.6909,-1.6925,-1.6974,-1.7102,-1.7109,-1.7116,-1.7163,-1.7177,-1.7189,0,0,0,0,0,0,-1.6593,-1.6611,-1.6646,-1.668,-1.6698,-1.6803,-1.6751,-1.6753,-1.6782,-1.6777,-1.6816,-1.6819,-1.6822,-1.6901,-1.6916,-1.6962,-1.6883,-1.7105,-1.7111,-1.7116,-1.7167,-1.7179,-1.7189,0,0,0,0,0,-1.6597,-1.6612,-1.6737,-1.6679,-1.6695,-1.6713,-1.6749,-1.675,-1.6772,-1.6796,-1.6799,-1.677,-1.6823,-1.6835,-1.691,-1.6955,-1.6873,-1.6878,-1.7109,-1.7114,-1.7118,-1.7173,0,0,0,0,0,0,-1.6601,-1.6615,-1.6741,-1.6745,-1.6652,-1.6707,-1.6715,-1.6747,-1.6789,-1.6793,-1.675,-1.6746,-1.6825,-1.6834,-1.6843,-1.6953,-1.6865,-1.687,-1.6874,-1.7112,-1.7116,-1.7119,0,0,0,0,0,0,-1.6606,-1.6619,-1.6743,-1.6709,-1.6709,-1.6701,-1.6709,-1.6773,-1.679,-1.6741,-1.6739,-1.6748,-1.6811,-1.6833,-1.684,-1.694,-1.6859,-1.6864,-1.6868,-1.687,-1.7115,-1.7118,0,0,0,0,0,0,-1.6611,-1.6622,-1.6707,-1.6708,-1.6708,-1.6761,-1.6758,-1.6838,-1.6759,-1.6739,-1.6752,-1.6749,-1.6811,-1.6818,-1.6839,-1.6936,-1.6939,-1.6859,-1.6863,-1.6865,-1.6867,0,0,0,0,0,0,0,-1.6616,-1.6545,-1.6713,-1.6707,-1.6708,-1.6788,-1.679,-1.6791,-1.6759,-1.6756,-1.6753,-1.6751,-1.683,-1.6835,-1.6841,-1.6932,0,0,-1.6859,-1.6861,0,0,0,0,0,0,0,0,-1.654,-1.6544,-1.6713,-1.6714,-1.6715,-1.6789,-1.679,-1.6791,-1.6758,-1.6756,-1.6754,-1.6752,-1.6831,-1.6836,-1.684,0,0,0,0,0,0,0,0,0,0,0,0,0,0,0,-1.6713,-1.6714,0,-1.6789,-1.679,-1.6791,-1.6758,-1.6756,-1.6754,-1.6753,-1.6832,-1.6836,-1.684,0,0,0,0,0,0,0,0,0,0,0,0,0,0,0,0,0,0,0,0,0,0,0,0,0,0,0,0,0,0,0,0,0,0,0,0,0,0,0,0,0,0,0,0,0,0,0,0,0,0,0,0,0,0,0,0,0,0,0,0,0,0,0,0,0,0,0,0,0]}],[{"header":{"parameterUnit":"kt","parameterCategory":2,"dx":1,"dy":1,"la1":30.253999710083008,"la2":30.299108505249023,"lo1":-89.0895004272461,"lo2":-89.04439544677734,"nx":28,"ny":28,"refTime":"2022-10-17T21:00:00:Z","depth":0,"parameterNumber":2,"parameterNumberName":"V-component_of_WINDS"},"data":[-14.8511,-14.869,-14.8701,-14.8908,-14.8951,-14.9093,-14.9146,-14.9215,-14.9271,-14.9438,-14.9534,-14.9558,-14.9613,-14.9727,-14.9828,-14.9835,-14.9878,-14.9936,-14.9934,-14.9672,-14.9636,-14.9601,-14.9562,-14.9945,-14.9945,-15.0205,-15.0207,-15.0209,-14.8322,-14.8369,-14.8482,-14.8597,-14.8693,-14.8644,-14.8729,-14.8811,-14.8938,-14.9007,-14.9102,-14.9247,-14.936,-14.9396,-14.9505,-14.9584,-14.9565,-14.9613,-14.9607,-14.9617,-14.9337,-14.9295,-14.9627,-14.9627,-14.9627,-14.9627,-14.9627,-14.9627,-14.7981,-14.8087,-14.8163,-14.8285,-14.8344,-14.842,-14.8521,-14.855,-14.8656,-14.8775,-14.8761,-14.8901,-14.8969,-14.9101,-14.9146,-14.9253,-14.92,-14.9253,-14.9266,-14.928,-14.9296,-14.8924,-14.9271,-14.927,-14.9269,-14.9268,-14.9268,0,-14.7734,-14.7736,-14.7843,-14.7954,-14.8042,-14.8127,-14.8206,-14.8268,-14.8267,-14.8354,-14.848,-14.8553,-14.8695,-14.8812,-14.8913,-14.8948,-14.8901,-14.8895,-14.8932,-14.8943,-14.8941,-14.8945,-14.849,-14.8885,-14.8882,-14.8879,-14.8877,-14.8876,-14.7391,-14.7512,-14.7594,-14.7668,-14.7714,-14.7832,-14.7903,-14.7893,-14.7969,-14.8061,-14.8152,-14.8269,-14.8362,-14.8558,-14.8582,-14.8686,-14.8664,-14.8815,-14.8679,-14.8685,-14.8667,-14.8661,-14.8673,-14.8841,-14.8846,-14.8849,-14.8852,0,-14.7197,-14.7211,-14.7401,-14.7467,-14.7488,-14.7614,-14.7669,-14.7772,-14.7786,-14.7928,-14.796,-14.798,-14.8101,-14.8101,-14.8237,-14.8233,-14.8438,-14.8413,-14.8416,-14.8411,-14.8547,-14.8535,-14.8986,-14.9044,-14.8646,-14.865,-14.8653,0,-14.6909,-14.7068,-14.7079,-14.7188,-14.7363,-14.7349,-14.7522,-14.755,-14.7609,-14.772,-14.7668,-14.7774,-14.7757,-14.7861,-14.7855,-14.8022,-14.8046,-14.8053,-14.805,-14.8059,-14.8058,-14.8096,-14.8078,-14.8035,-14.8033,-14.8031,-14.8029,0,-14.6605,-14.6795,-14.6973,-14.7017,-14.7102,-14.7185,-14.7223,-14.7287,-14.7355,-14.7443,-14.7487,-14.7589,-14.7645,-14.7723,-14.7715,-14.7623,-14.7918,-14.7789,-14.7925,-14.7925,-14.799,-14.7986,-14.8386,-14.8026,-14.8025,-14.8025,-14.8024,0,-14.6374,-14.6469,-14.6723,-14.6793,-14.6842,-14.6957,-14.706,-14.7158,-14.7229,-14.7233,-14.7301,-14.7265,-14.741,-14.7283,-14.7482,-14.7365,-14.7423,-14.7442,-14.7451,-14.7464,-14.7322,-14.7549,-14.7929,-14.7969,-14.7476,-14.7472,-14.7468,0,-14.6024,-14.6284,-14.6273,-14.6514,-14.6634,-14.657,-14.6696,-14.676,-14.6777,-14.6878,-14.6894,-14.7009,-14.6914,-14.6949,-14.7048,-14.7068,-14.722,-14.7047,-14.719,-14.7195,-14.7176,-14.7526,-14.7583,-14.7846,-14.7409,-14.7415,-14.742,0,-14.5753,-14.5856,-14.5899,-14.595,-14.6034,-14.6132,-14.6277,-14.6389,-14.6457,-14.6533,-14.6654,-14.6812,-14.6748,-14.6805,-14.6785,-14.6888,-14.7116,-14.6803,-14.6804,-14.6861,-14.7379,-14.7433,-14.7478,-14.708,-14.7087,-14.7092,-14.7373,0,-14.5404,-14.5534,-14.5652,-14.5763,-14.5839,-14.5988,-14.5991,-14.607,-14.6045,-14.6058,-14.6234,-14.6282,-14.6391,-14.6439,-14.6414,-14.6649,-14.6609,-14.6537,-14.6413,-14.6642,-14.6735,-14.6772,-14.6275,-14.6272,-14.6269,-14.6266,0,0,-14.5065,-14.5252,-14.5234,-14.5375,-14.5439,-14.5368,-14.5527,-14.5579,-14.5685,-14.5729,-14.566,-14.5891,-14.5932,-14.6144,-14.6216,-14.6259,-14.6301,-14.6219,-14.6533,-14.6563,-14.659,-14.6689,-14.6729,-14.626,-14.6259,-14.6258,-14.6257,0,-14.4939,-14.4989,-14.5148,-14.5202,-14.5282,-14.5289,-14.5327,-14.5391,-14.5406,-14.5578,-14.5514,-14.5618,-14.5801,-14.5854,-14.5905,-14.6195,-14.6138,-14.6227,-14.6385,-14.6502,-14.6535,-14.6565,-14.667,-14.6707,-14.625,-14.625,-14.625,0,-14.4673,-14.4723,-14.48,-14.494,-14.499,-14.5113,-14.4985,-14.5119,-14.5209,-14.5118,-14.5289,-14.5315,-14.5384,-14.5585,-14.5674,-14.5613,-14.5991,-14.587,-14.5889,-14.5899,-14.6012,-14.6052,-14.6089,-14.561,-14.5608,-14.5606,0,0,-14.4563,-14.4683,-14.473,-14.4913,-14.4949,-14.4961,-14.5025,-14.5006,-14.5073,-14.5099,-14.5132,-14.5196,-14.5302,-14.5372,-14.5471,-14.569,-14.5702,-14.5791,-14.5821,-14.5846,-14.5869,-14.5988,-14.6029,-14.5598,-14.5598,-14.5597,0,0,-14.4508,-14.4573,-14.4536,-14.4748,-14.4816,-14.4872,-14.4982,-14.4937,-14.5027,-14.5009,-14.498,-14.4995,-14.5182,-14.5208,-14.5098,-14.5426,-14.5303,-14.5329,-14.5402,-14.544,-14.5469,-14.5459,-14.4969,0,0,0,0,0,-14.438,-14.4565,-14.4532,-14.4567,-14.4741,-14.4891,-14.4913,-14.4895,-14.481,-14.4898,-14.4917,-14.4852,-14.5143,-14.5045,-14.5079,-14.5202,-14.5491,-14.551,-14.5528,-14.5673,-14.5713,-14.5746,0,0,0,0,0,0,-14.4394,-14.4438,-14.4526,-14.4591,-14.4629,-14.4884,-14.4736,-14.4736,-14.48,-14.4785,-14.4851,-14.4854,-14.4839,-14.5026,-14.5057,-14.5174,-14.4959,-14.5498,-14.5514,-14.5529,-14.5687,-14.5719,-14.5747,0,0,0,0,0,-14.4405,-14.444,-14.4724,-14.4588,-14.4622,-14.4643,-14.4728,-14.4727,-14.4776,-14.4806,-14.4808,-14.4757,-14.4843,-14.4867,-14.5044,-14.5161,-14.4937,-14.4949,-14.5509,-14.5521,-14.5533,-14.5703,0,0,0,0,0,0,-14.4413,-14.4439,-14.4731,-14.474,-14.4517,-14.4628,-14.4645,-14.472,-14.4792,-14.4796,-14.471,-14.4698,-14.4848,-14.4866,-14.4885,-14.5157,-14.492,-14.4932,-14.4939,-14.5518,-14.5528,-14.5537,0,0,0,0,0,0,-14.442,-14.4448,-14.4735,-14.4647,-14.4646,-14.4614,-14.463,-14.4775,-14.4793,-14.4691,-14.4683,-14.4704,-14.4817,-14.4866,-14.4881,-14.5109,-14.4906,-14.4918,-14.4925,-14.493,-14.5526,-14.5534,0,0,0,0,0,0,-14.4431,-14.4455,-14.4644,-14.4644,-14.4642,-14.4747,-14.4742,-14.492,-14.4722,-14.4689,-14.4703,-14.4695,-14.482,-14.4834,-14.4878,-14.51,-14.5107,-14.4907,-14.4914,-14.492,-14.4923,0,0,0,0,0,0,0,-14.444,-14.4285,-14.4675,-14.4641,-14.4639,-14.4828,-14.483,-14.4833,-14.472,-14.4713,-14.4705,-14.4698,-14.4842,-14.4854,-14.4867,-14.5094,0,0,-14.4906,-14.4911,0,0,0,0,0,0,0,0,-14.4275,-14.4283,-14.4675,-14.4677,-14.4679,-14.4828,-14.483,-14.4832,-14.4719,-14.4713,-14.4707,-14.4701,-14.4845,-14.4855,-14.4865,0,0,0,0,0,0,0,0,0,0,0,0,0,0,0,-14.4676,-14.4677,0,-14.4829,-14.483,-14.4832,-14.4718,-14.4713,-14.4708,-14.4703,-14.4848,-14.4856,-14.4865,0,0,0,0,0,0,0,0,0,0,0,0,0,0,0,0,0,0,0,0,0,0,0,0,0,0,0,0,0,0,0,0,0,0,0,0,0,0,0,0,0,0,0,0,0,0,0,0,0,0,0,0,0,0,0,0,0,0,0,0,0,0,0,0,0,0,0,0,0]}]]]